TimeEET,TemperatureF,Dew PointF,Humidity,Sea Level PressureIn,VisibilityMPH,Wind Direction,Wind SpeedMPH,Gust SpeedMPH,PrecipitationIn,Events,Conditions,WindDirDegrees,DateUTC
12:00 AM,57.2,39.2,51,30.06,-9999.0,Calm,Calm,-,N/A,,Clear,0,2014-02-14 22:00:00
1:00 AM,55.4,39.2,54,30.06,-9999.0,Calm,Calm,-,N/A,,Clear,0,2014-02-14 23:00:00
2:00 AM,55,40,45,30.06,6,SW,2.3,,,,,220,2014-02-15 00:00:00
2:00 AM,55.4,39.2,54,30.06,-9999.0,SW,2.3,-,N/A,,Clear,220,2014-02-15 00:00:00
3:00 AM,55.4,41.0,58,30.04,-9999.0,WSW,3.5,-,N/A,,Clear,240,2014-02-15 01:00:00
4:00 AM,53.6,41.0,62,30.04,-9999.0,SW,4.6,-,N/A,,Clear,230,2014-02-15 02:00:00
5:00 AM,53,41,53,30.05,6,WSW,4.6,,,,,250,2014-02-15 03:00:00
5:00 AM,51.8,41.0,67,30.04,-9999.0,WSW,4.6,-,N/A,,Clear,250,2014-02-15 03:00:00
6:00 AM,51.8,39.2,62,30.06,-9999.0,SE,2.3,-,N/A,,Clear,140,2014-02-15 04:00:00
7:00 AM,50.0,41.0,71,30.06,-9999.0,SW,3.5,-,N/A,,Clear,220,2014-02-15 05:00:00
8:00 AM,55,43,54,30.09,6,SW,3.5,,,,,230,2014-02-15 06:00:00
8:00 AM,55.4,42.8,63,30.06,-9999.0,SW,3.5,-,N/A,,Clear,230,2014-02-15 06:00:00
9:00 AM,60.8,44.6,55,30.09,-9999.0,SW,5.8,-,N/A,,Clear,230,2014-02-15 07:00:00
10:00 AM,64.4,46.4,52,30.09,-9999.0,WSW,4.6,-,N/A,,Clear,250,2014-02-15 08:00:00
11:00 AM,67,45,34,30.08,6,West,4.6,,,,,270,2014-02-15 09:00:00
11:00 AM,68.0,44.6,43,30.06,-9999.0,West,4.6,-,N/A,,Clear,270,2014-02-15 09:00:00
12:00 PM,68.0,44.6,43,30.04,-9999.0,West,6.9,-,N/A,,Clear,280,2014-02-15 10:00:00
1:00 PM,71.6,44.6,38,30.01,-9999.0,WSW,10.4,-,N/A,,Clear,250,2014-02-15 11:00:00
2:00 PM,73,43,23,29.98,6,WSW,11.5,,,,,250,2014-02-15 12:00:00
2:00 PM,73.4,42.8,33,29.98,-9999.0,WSW,11.5,-,N/A,,Clear,250,2014-02-15 12:00:00
3:00 PM,75.2,41.0,29,29.95,-9999.0,West,9.2,-,N/A,,Clear,260,2014-02-15 13:00:00
4:00 PM,73.4,41.0,31,29.95,-9999.0,WSW,12.7,-,N/A,,Clear,250,2014-02-15 14:00:00
5:00 PM,72,41,22,29.94,6,West,10.4,,,,,270,2014-02-15 15:00:00
5:00 PM,71.6,41.0,33,29.95,-9999.0,West,10.4,-,N/A,,Clear,270,2014-02-15 15:00:00
6:00 PM,68.0,42.8,40,29.95,6.2,West,4.6,-,N/A,,Partly Cloudy,260,2014-02-15 16:00:00
7:00 PM,66.2,44.6,46,29.95,-9999.0,WSW,2.3,-,N/A,,Clear,250,2014-02-15 17:00:00
8:00 PM,66,44,33,29.98,6,WSW,3.5,,,,Partly Cloudy,240,2014-02-15 18:00:00
8:00 PM,66.2,44.6,46,29.98,-9999.0,WSW,3.5,-,N/A,,Clear,240,2014-02-15 18:00:00
9:00 PM,66.2,42.8,43,29.98,-9999.0,West,3.5,-,N/A,,Clear,270,2014-02-15 19:00:00
10:00 PM,68.0,44.6,43,29.98,1.2,WNW,17.3,-,N/A,,Sand,300,2014-02-15 20:00:00
11:00 PM,67,45,34,30.00,2,WNW,13.8,,,,Blowing Sand,290,2014-02-15 21:00:00
11:00 PM,66.2,44.6,46,29.98,1.9,WNW,13.8,-,N/A,,Sand,290,2014-02-15 21:00:00